Sioux Falls, SD

11:28 PM CST on January 22, 2017 (GMT -0600)
Foss

Weather History for KFSD - April, 2014

Change the Weather History Date:

Tuesday, April 22, 2014

  Actual Average Record
Temperature  
Mean Temperature 48 °F 49 °F  
Max Temperature 66 °F 62 °F 93 °F (1960)
Min Temperature 29 °F 37 °F 23 °F (1956)
Degree Days  
Heating Degree Days 17 16  
Month to date heating degree days 450 449  
Since 1 July heating degree days 7898 7294  
Cooling Degree Days 0 0  
Month to date cooling degree days 0 0  
Year to date cooling degree days 0 0  
Moisture  
Dew Point 31 °F    
Average Humidity 60    
Maximum Humidity 92    
Minimum Humidity 28    
Precipitation  
Precipitation T in 0.10 in 3.72 in (2001)
Month to date precipitation 0.45 2.17  
Year to date precipitation 2.15 5.09  
Snow  
Snow 0.00 in 0.10 in 4.70 in (1988)
Month to date snowfall 3.4 3.9  
Since 1 July snowfall 45.3 43.8  
Snow Depth 0.00 in    
Sea Level Pressure  
Sea Level Pressure 30.09 in    
Wind  
Wind Speed 8 mph (SE)    
Max Wind Speed 21 mph    
Max Gust Speed 28 mph    
Visibility 10 miles    
Events      
T = Trace of Precipitation, MM = Missing Value Source: NWS Daily Summary

Daily Weather History Graph

Daily Weather History Graph

Search for Another Location

Airport or City:

Trip Planner

Search our weather history database for the weather conditions in past years. The results will help you decide how hot, cold, wet, or windy it might be!

Date:

Astronomy

Apr. 22, 2014 Rise Set
Actual Time 6:32 AM CDT 8:18 PM CDT
Civil Twilight 6:02 AM CDT 8:49 PM CDT
Nautical Twilight 5:25 AM CDT 9:26 PM CDT
Astronomical Twilight 4:45 AM CDT 10:06 PM CDT
Moon 2:35 AM CDT (4/22) 1:09 PM CDT (4/22)
Length of Visible Light 14h 46m
Length of Day
13h 45m
Last Quarter, 46% of the Moon is Illuminated
Apr 22
Last Quarter
Apr 29
New
May 6
First Quarter
May 14
Full
May 21
Last Quarter

Hourly Weather History & Observations

Time (CDT) Temp. Windchill Dew Point Humidity Pressure Visibility Wind Dir Wind Speed Gust Speed Precip Events Conditions
12:56 AM 37.9 °F 35.5 °F 30.0 °F 73% 30.17 in 10.0 mi NNE 3.5 mph - N/A   Clear
1:56 AM 36.0 °F - 30.0 °F 79% 30.17 in 10.0 mi Calm Calm - N/A   Clear
2:56 AM 35.1 °F - 28.0 °F 76% 30.17 in 10.0 mi Calm Calm - N/A   Clear
3:56 AM 33.1 °F - 28.9 °F 85% 30.17 in 10.0 mi Calm Calm - N/A   Clear
4:56 AM 30.0 °F - 26.1 °F 85% 30.17 in 10.0 mi Calm Calm - N/A   Clear
5:56 AM 30.0 °F - 26.1 °F 85% 30.18 in 10.0 mi Calm Calm - N/A   Clear
6:56 AM 28.9 °F - 26.1 °F 89% 30.18 in 10.0 mi Calm Calm - N/A   Partly Cloudy
7:56 AM 37.4 °F - 32.0 °F 81% 30.18 in 10.0 mi Calm Calm - N/A   Partly Cloudy
8:56 AM 44.6 °F - 33.8 °F 66% 30.18 in 10.0 mi Calm Calm - N/A   Partly Cloudy
9:56 AM 52.0 °F - 30.9 °F 45% 30.17 in 10.0 mi SSE 5.8 mph - N/A   Partly Cloudy
10:56 AM 55.0 °F - 32.0 °F 42% 30.16 in 10.0 mi SE 8.1 mph - N/A   Scattered Clouds
11:56 AM 57.9 °F - 30.9 °F 36% 30.14 in 10.0 mi SE 11.5 mph - N/A   Scattered Clouds
12:56 PM 61.0 °F - 30.9 °F 32% 30.12 in 10.0 mi SSE 11.5 mph 17.3 mph N/A   Scattered Clouds
1:56 PM 64.0 °F - 32.0 °F 30% 30.08 in 10.0 mi SSE 11.5 mph - N/A   Partly Cloudy
2:56 PM 64.9 °F - 30.0 °F 27% 30.05 in 10.0 mi Variable 5.8 mph 19.6 mph N/A   Mostly Cloudy
3:56 PM 64.0 °F - 32.0 °F 30% 30.01 in 10.0 mi SSE 12.7 mph 20.7 mph N/A   Mostly Cloudy
4:56 PM 64.0 °F - 32.0 °F 30% 30.00 in 10.0 mi SSE 10.4 mph 18.4 mph N/A   Mostly Cloudy
5:56 PM 64.0 °F - 30.9 °F 29% 29.99 in 10.0 mi SE 12.7 mph - 0.00 in   Mostly Cloudy
6:56 PM 63.0 °F - 30.9 °F 30% 29.98 in 10.0 mi SSE 17.3 mph - N/A   Mostly Cloudy
7:56 PM 62.1 °F - 30.9 °F 31% 29.96 in 10.0 mi SSE 15.0 mph - N/A   Mostly Cloudy
8:56 PM 59.0 °F - 32.0 °F 36% 29.97 in 10.0 mi SSE 15.0 mph - N/A   Mostly Cloudy
9:56 PM 59.0 °F - 33.1 °F 38% 29.96 in 10.0 mi SE 13.8 mph 20.7 mph N/A   Mostly Cloudy
10:56 PM 57.9 °F - 34.0 °F 41% 29.96 in 10.0 mi SE 16.1 mph - N/A   Mostly Cloudy
11:56 PM 55.9 °F - 34.0 °F 44% 29.94 in 10.0 mi SE 15.0 mph 26.5 mph N/A   Overcast